Regional Weather Roundup
Issued by NWS

Home | Current Version | Previous Version | Text Only | Print | Product List | Glossary Off
Versions: 1 2 3 4 5 6 7 8 9 10 11 12 13 14 15 16 17 18 19 20 21 22 23 24 25 26 27 28 29 30 31 32 33 34 35 36 37 38 39 40 41 42 43 44 45 46 47 48 49 50

504
ASUS44 KJAN 220903
RWRMS

MISSISSIPPI HOURLY WEATHER ROUNDUP
NATIONAL WEATHER SERVICE JACKSON MS
400 AM CDT MON SEP 22 2014

NOTE: "FAIR: INDICATES FEW OR NO CLOUDS BELOW 12,000 FEET WITH NO
SIGNIFICANT WEATHER AND/OR OBSTRUCTIONS TO VISIBILITY.

MSZ001>002-007>008-010>013-018>021-025>028-034>036-221000-
NORTHWEST MISSISSIPPI

CITY           SKY/WX    TMP DP  RH WIND       PRES   REMARKS
CLARKSDALE       N/A     63  55  77 CALM      30.12R
CLEVELAND      FAIR      68  55  64 N10       30.09R
GREENWOOD      MOCLDY    68  62  81 N6        30.07R
GREENVILLE     CLOUDY    72  52  49 NE15      30.08R
GRENADA        CLOUDY    68  54  60 N6        30.09R
OLIVE BRANCH   CLEAR     61  55  82 N7        30.13R
OXFORD         FAIR      61  50  67 N5        30.12R
TUNICA         SUNNY     59  54  82 N7        30.13R
$$

MSZ003>006-009-014>017-022>024-029>033-037>039-221000-
NORTHEAST MISSISSIPPI

CITY           SKY/WX    TMP DP  RH WIND       PRES   REMARKS
COLUMBUS AFB   PTCLDY    68  58  72 N5        30.06R
CORINTH          N/A     57  52  82 NW5       30.10R
GOLDN TRIANGLE PTCLDY    68  59  73 CALM      30.05R
STARKVILLE     CLOUDY    70  59  68 N3        30.06R
TUPELO         PTCLDY    62  53  72 NE8       30.08R
$$

MSZ040-058-221000-
CENTRAL MISSISSIPPI

CITY           SKY/WX    TMP DP  RH WIND       PRES   REMARKS
JACKSON INTL   MOCLDY    75  70  84 N14G20    30.03R
JACKSON HAWKNS CLEAR     75  67  76 VRB7      30.04R
MERIDIAN KEY   CLOUDY    72  68  87 CALM      30.02S
MERIDIAN NAS   CLOUDY    73  68  84 N8        30.02S
RAYMOND        FAIR      72  66  83 CALM      30.04R
VICKSBURG      PTCLDY    74  61  63 N10       30.04R
$$

MSZ059>079-221000-
SOUTH MISSISSIPPI

CITY           SKY/WX    TMP DP  RH WIND       PRES   REMARKS
BROOKHAVEN     FAIR      68  66  94 CALM      30.04S
COLUMBIA       FAIR      64  63  94 CALM      30.01R
HATTIESBURG    PTCLDY    69  67  93 CALM      30.01F
MCCOMB         PTCLDY    69  66  90 CALM      30.02S
NATCHEZ        MOCLDY    70  68  94 CALM      30.04S
PINE BELT      CLEAR    N/A N/A N/A NW6       30.02S
$$

MSZ080>082-221000-
COASTAL MISSISSIPPI

CITY           SKY/WX    TMP DP  RH WIND       PRES   REMARKS
BILOXI         CLEAR     73  71  93 NW1       29.99F
PASCAGOULA     CLEAR     65  64  97 CALM      29.99F FOG
GULFPORT       CLEAR     70  68  93 CALM      29.99S
$$



USA.gov is the U.S. government's official web portal to all federal, state and local government web resources and services.